Notices

What's New in latest Release from April 7th, 2021:

- Updated Glossary, including Speed of Maximum Gust, and Total Hourly Precipitation

- Updated national and regional climate services offices contacts and prices information

- Addition of station inventory lists for 1981-2010, 1971-2000, and 1961-1990 Normals.

If you haven't already, please take our survey and provide feedback about our website: https://eccc.sondage-survey.ca/f/LanguageSelection.aspx?s=442ca660-fcf1-47c0-95a9-59707d6fd709

Hourly Data Report for July 31, 2003

TORONTO CITY
ONTARIO

43°40'00.000" N
79°24'00.000" W
112.50 m
6158355
71508
XTO

Download Data

Hourly Data (July 2003)
Hourly Data Report for July 31, 2003
TIME
LST
Temp Definition
°C
Dew Point Definition
°C
Rel Hum Definition
%
Precip. Amount Definition
mm

Wind Dir Definition
10's deg

Wind Spd Definition
km/h
Visibility Definition
km
Stn Press Definition
kPa
Hmdx Definition


Wind Chill Definition


Weather Definition


00:00 21.7 15.3 67   LegendMM LegendMM LegendMM 100.54 26   LegendNANA
01:00 21.8 15.9 69   LegendMM LegendMM LegendMM 100.55 26   LegendNANA
02:00 21.1 15.9 72   LegendMM LegendMM LegendMM 100.54 26   LegendNANA
03:00 20.5 15.9 75   LegendMM LegendMM LegendMM 100.51 25   LegendNANA
04:00 20.4 16.1 76   LegendMM LegendMM LegendMM 100.52 25   LegendNANA
05:00 19.7 16.4 81   LegendMM LegendMM LegendMM 100.52     LegendNANA
06:00 19.9 16.8 82   LegendMM LegendMM LegendMM 100.51     LegendNANA
07:00 20.5 17.2 81   LegendMM LegendMM LegendMM 100.53 26   LegendNANA
08:00 20.7 16.9 79   LegendMM LegendMM LegendMM 100.50 26   LegendNANA
09:00 20.6 16.7 78   LegendMM LegendMM LegendMM 100.51 26   LegendNANA
10:00 21.5 17.2 77   LegendMM LegendMM LegendMM 100.52 27   LegendNANA
11:00 23.5 17.9 71   LegendMM LegendMM LegendMM 100.51 29   LegendNANA
12:00 24.3 17.3 65   LegendMM LegendMM LegendMM 100.47 30   LegendNANA
13:00 24.9 17.7 64   LegendMM LegendMM LegendMM 100.44 31   LegendNANA
14:00 24.5 18.0 67   LegendMM LegendMM LegendMM 100.43 31   LegendNANA
15:00 24.4 16.6 62   LegendMM LegendMM LegendMM 100.40 29   LegendNANA
16:00 24.4 16.2 60   LegendMM LegendMM LegendMM 100.34 29   LegendNANA
17:00 24.4 16.2 60   LegendMM LegendMM LegendMM 100.34 29   LegendNANA
18:00 23.7 16.7 65   LegendMM LegendMM LegendMM 100.29 29   LegendNANA
19:00 23.4 16.6 66   LegendMM LegendMM LegendMM 100.31 28   LegendNANA
20:00 22.8 17.5 72   LegendMM LegendMM LegendMM 100.26 28   LegendNANA
21:00 22.5 18.1 76   LegendMM LegendMM LegendMM 100.29 29   LegendNANA
22:00 21.5 18.6 84   LegendMM LegendMM LegendMM 100.28 28   LegendNANA
23:00 21.2 18.6 85   LegendMM LegendMM LegendMM 100.29 28   LegendNANA

Notes on Data Quality.

Legend

  • E = Estimated
  • M = Missing
  • NA = Not Available*
  • [empty] = Indicates an unobserved value
Date modified: